Location: Blangy-Tronville
(49.8790°N, 2.4226°E)
Time: 20:53:27
(UTC+00:00)

Cosmos 2344 - Pass Details

Date: 18 November 2025
Orbit: 1197 x 3045 km, 63.3° (Epoch: 10 December)

Event Time Altitude Azimuth Distance (km) Brightness Sun altitude
Rises 18:21:39 0° 315° (NW) 4,177 6.9 -22.1°
Reaches altitude 10° 18:24:10 10° 317° (NW) 3,284 6.2 -22.5°
Maximum altitude 18:32:00 81° 46° (NE) 1,524 3.8 -23.7°
Enters shadow 18:38:35 25° 131° (SE) 3,043 5.1 -24.8°
